Hourly Data Report for February 06, 2020

All times are specified in Local Standard Time (LST). Add 1 hour to adjust for Daylight Saving Time where and when it is observed.

OTTAWA INTL A
ONTARIO
Current Station Operator: NAVCAN

45°19'00.000" N
75°40'00.000" W
114.90 m
6106001
71628
YOW

Download Data

Hourly Data (February 2020)
Hourly Data Report for February 6, 2020
TIME Temp Definition
°C
Dew Point Definition
°C
Rel Hum Definition
%
Wind Dir Definition
10's deg

Wind Spd Definition
km/h
Visibility Definition
km
Stn Press Definition
kPa
Hmdx Definition


Wind Chill Definition


Weather Definition


00:00 -9.9 -15.2 65 10 8 24.1 100.17   -14 LegendNANA
01:00 -9.4 -14.9 65 6 7 24.1 100.04   -13 Cloudy
02:00 -9.8 -14.9 67 5 8 24.1 100.04   -14 LegendNANA
03:00 -9.8 -14.7 68 5 11 24.1 99.94   -15 LegendNANA
04:00 -9.6 -14.7 67 7 9 24.1 99.94   -14 Cloudy
05:00 -10.1 -13.3 77 4 17 6.4 99.84   -17 Snow
06:00 -10.5 -13.0 82 5 16 6.4 99.68   -18 Snow
07:00 -10.3 -12.6 84 5 12 6.4 99.64   -16 Snow
08:00 -10.1 -12.3 85 4 17 6.4 99.63   -17 Snow
09:00 -9.7 -11.4 87 3 24 6.4 99.49   -18 Freezing Drizzle,Fog
10:00 -8.9 -10.7 87 4 23 4.8 99.43   -17 Freezing Drizzle,Fog
11:00 -8.4 -10.6 85 3 27 9.7 99.35   -17 Snow,Fog
12:00 -7.6 -10.0 83 1 18 16.1 99.30   -14 LegendNANA
13:00 -6.8 -9.0 84 3 18 6.4 99.17   -13 Snow
14:00 -6.2 -7.9 88 5 17 3.2 99.10   -12 Snow
15:00 -5.7 -7.7 86 4 25 9.7 99.02   -13 Snow
16:00 -5.8 -8.2 83 4 26 9.7 98.98   -14 Snow
17:00 -5.8 -8.1 84 4 15 16.1 98.98   -12 Snow
18:00 -5.8 -8.0 85 4 16 16.1 98.94   -12 Snow
19:00 -5.9 -7.5 89 3 20 2.4 98.82   -13 Snow
20:00 -5.8 -7.2 90 3 18 9.7 98.76   -12 Snow
21:00 -5.5 -7.1 89 2 14 4.8 98.77   -11 Snow
22:00 -5.6 -7.0 90 1 19 3.2 98.67   -12 Snow
23:00 -5.5 -6.8 91 2 22 4.0 98.51   -13 Snow

Notes on Data Quality.

Legend

  • E = Estimated
  • M = Missing
  • NA = Not Available*
  • [empty] = Indicates an unobserved value
Date modified: